Location: Unspecified
(0.0000°N, 0.0000°E)
Time: 23:12:47
(UTC+00:00)

ATLAS 5 CENTAUR R/B - Pass Details

Date: 12 August 2025
Orbit: 7573 x 34869 km, 11.0° (Epoch: 11 April)

Event Time Altitude Azimuth Distance (km) Brightness Sun altitude
Rises 04:35:59 0° 277° (W) 16,559 ? -21.5°
Reaches altitude 10° 04:50:24 10° 280° (W) 13,716 ? -18.0°
Maximum altitude 05:36:22 73° 7° (N) 7,884 ? -6.9°
Drops below altitude 10° 06:53:09 10° 95° (E) 20,202 ? 11.6°
Sets 07:59:46 0° 99° (E) 29,324 ? 27.6°
